MMS 2

Last updated on Jan. 17, 2020, 4:31 a.m. UTC

1 40483U 15011B   20016.77099537 -.00001667  00000-0  00000+0 0  9993
2 40483  23.5666 120.3526 8804083  17.5087 224.2985  0.28549439 10756
UTC
Height (km)
Latitude
Longitude
Inclination
Orbital Period
UTC large
Height (km)
Speed (km/s)
/
Latitude / Longitude
Inclination (degrees)
Orbital Period (minutes)
Azimuth
Elevation
Range (km)
Doppler Factor
iOS Compass Heading
iOS Angle

Next 30 passes for location: Hong Kong

Rise time Rise Azimuth (degrees) Set time Set Azimuth (degrees) Duration Max altitude (degrees)

No matching passes for this satellites